Weather History for KFVE - January, 2014

Change the Weather History Date:

Monday, January 27, 2014

  Actual Average Record
Temperature  
Mean Temperature 3 °F 8 °F  
Max Temperature 17 °F 17 °F - ()
Min Temperature -11 °F 0 °F - ()
Degree Days  
Heating Degree Days 62    
Month to date heating degree days 1496  
Since 1 July heating degree days 5200  
Cooling Degree Days 0    
Month to date cooling degree days 0  
Year to date cooling degree days 0  
Moisture  
Dew Point -2 °F    
Average Humidity 78    
Maximum Humidity 92    
Minimum Humidity 59    
Precipitation  
Precipitation 0.13 in 0.03 in - ()
Month to date precipitation 2.00 1.62  
Year to date precipitation 2.00 1.62  
Sea Level Pressure  
Sea Level Pressure 29.50 in    
Wind  
Wind Speed 13 mph (SSE)    
Max Wind Speed 32 mph    
Max Gust Speed 50 mph    
Visibility 4 miles    
Events Fog , Snow    
T = Trace of Precipitation, MM = Missing Value Source: NWS Daily Summary

Daily Weather History Graph

Daily Weather History Graph

Search for Another Location

Airport or City:

Trip Planner

Search our weather history database for the weather conditions in past years. The results will help you decide how hot, cold, wet, or windy it might be!

Date:

Astronomy

Jan. 27, 2014 Rise Set
Actual Time 7:04 AM EST 4:27 PM EST
Civil Twilight 6:31 AM EST 5:00 PM EST
Nautical Twilight 5:54 AM EST 5:38 PM EST
Astronomical Twilight 5:18 AM EST 6:14 PM EST
Moon 3:45 AM EST (1/27) 1:06 PM EST (1/27)
Length of Visible Light 10h 29m
Length of Day
9h 22m
Waning Crescent, 15% of the Moon is Illuminated
Jan 27
Waning Crescent
Jan 30
New
Feb 6
First Quarter
Feb 14
Full
Feb 22
Last Quarter

Hourly Weather History & Observations

Time (EST) Temp. Windchill Dew Point Humidity Pressure Visibility Wind Dir Wind Speed Gust Speed Precip Events Conditions
12:53 AM -9.0 °F -22.3 °F -17.0 °F 68% 29.85 in 10.0 mi SSE 5.8 mph - N/A   Overcast
1:53 AM -9.9 °F -21.5 °F -17.0 °F 71% 29.84 in 10.0 mi ESE 4.6 mph - N/A   Mostly Cloudy
2:53 AM -9.9 °F -26.3 °F -17.0 °F 71% 29.81 in 10.0 mi ESE 8.1 mph - N/A   Clear
3:53 AM -9.9 °F -26.3 °F -16.1 °F 74% 29.80 in 10.0 mi ESE 8.1 mph - N/A   Partly Cloudy
4:53 AM -9.0 °F -23.8 °F -15.0 °F 75% 29.79 in 10.0 mi ESE 6.9 mph - N/A   Overcast
5:53 AM -8.0 °F -25.0 °F -13.0 °F 79% 29.74 in 3.0 mi ESE 9.2 mph - 0.00 in Snow Light Snow
6:50 AM -7.6 °F -22.1 °F -11.2 °F 84% 29.64 in 4.0 mi East 6.9 mph - 0.00 in Snow Light Snow
6:53 AM -7.1 °F -22.8 °F -11.9 °F 79% 29.73 in 2.5 mi East 8.1 mph - 0.00 in Snow Light Snow
6:58 AM -7.1 °F -23.9 °F -11.9 °F 79% 29.63 in 1.5 mi East 9.2 mph - 0.00 in Snow Light Snow
7:06 AM -7.1 °F -22.8 °F -11.9 °F 79% 29.63 in 1.2 mi East 8.1 mph - 0.00 in Snow Light Snow
7:15 AM -8.0 °F -25.0 °F -11.9 °F 83% 29.62 in 1.0 mi East 9.2 mph - 0.00 in Snow Light Snow
7:23 AM -7.1 °F -25.0 °F -11.9 °F 79% 29.61 in 0.8 mi East 10.4 mph - 0.00 in Snow Light Snow
7:32 AM -7.1 °F -25.9 °F -11.0 °F 83% 29.60 in 1.0 mi East 11.5 mph - 0.00 in Snow Light Snow
7:53 AM -7.1 °F -25.9 °F -11.0 °F 83% 29.66 in 0.8 mi East 11.5 mph - 0.00 in Snow Light Snow
8:11 AM -6.0 °F -23.6 °F -9.0 °F 87% 29.56 in 1.2 mi East 10.4 mph 19.6 mph 0.00 in Snow Light Snow
8:40 AM -5.1 °F -20.4 °F -8.0 °F 87% 29.53 in 0.5 mi East 8.1 mph - 0.00 in Fog , Snow Snow
8:50 AM -4.0 °F -21.2 °F -7.6 °F 85% 29.52 in 0.5 mi East 10.4 mph - 0.00 in Fog , Snow Light Snow
8:53 AM -4.0 °F -20.2 °F -7.1 °F 87% 29.60 in 0.8 mi East 9.2 mph - 0.00 in Snow Light Snow
9:06 AM -2.9 °F -21.6 °F -7.1 °F 82% 29.49 in 0.8 mi East 12.7 mph - 0.00 in Snow Light Snow
9:32 AM -2.0 °F -21.2 °F -5.1 °F 87% 29.46 in 0.5 mi East 13.8 mph 19.6 mph 0.01 in Fog , Snow Snow
9:53 AM -0.9 °F -18.3 °F -5.1 °F 83% 29.52 in 0.5 mi East 11.5 mph - 0.01 in Fog , Snow Snow
10:10 AM -0.9 °F -19.1 °F -4.0 °F 87% 29.41 in 0.2 mi East 12.7 mph - 0.01 in Fog , Snow Snow
10:53 AM 1.0 °F -15.8 °F -2.9 °F 83% 29.42 in 0.2 mi East 11.5 mph - 0.03 in Fog , Snow Heavy Snow
11:43 AM 1.9 °F -11.8 °F -0.9 °F 88% 29.30 in 0.2 mi East 8.1 mph - 0.04 in Fog , Snow Heavy Snow
11:50 AM 1.4 °F -12.5 °F -0.4 °F 92% 29.29 in 0.2 mi East 8.1 mph - 0.05 in Fog , Snow Snow
11:53 AM 1.9 °F -11.8 °F -0.9 °F 88% 29.37 in 0.2 mi East 8.1 mph - 0.05 in Fog , Snow Snow
12:16 PM 1.9 °F -10.6 °F -0.9 °F 88% 29.28 in 0.5 mi East 6.9 mph - 0.01 in Fog , Snow Light Snow
12:45 PM 3.9 °F -8.2 °F 1.0 °F 88% 29.27 in 0.5 mi ESE 6.9 mph - 0.03 in Fog , Snow Snow
12:53 PM 5.0 °F -5.6 °F 1.9 °F 87% 29.34 in 0.8 mi ESE 5.8 mph - 0.03 in Snow Light Snow
1:23 PM 6.1 °F -2.8 °F 3.0 °F 87% 29.28 in 1.0 mi SSE 4.6 mph - 0.00 in Snow Light Snow
1:31 PM 6.1 °F -0.9 °F 3.0 °F 87% 29.28 in 1.8 mi SE 3.5 mph - 0.00 in Snow Light Snow
1:41 PM 7.0 °F - 3.9 °F 87% 29.28 in 2.0 mi Calm Calm - 0.00 in Snow Light Snow
1:53 PM 8.1 °F - 5.0 °F 87% 29.37 in 4.0 mi Calm Calm - 0.00 in Snow Light Snow
2:04 PM 9.0 °F -5.1 °F 5.0 °F 84% 29.32 in 1.8 mi West 10.4 mph - 0.00 in Snow Light Snow
2:06 PM 9.0 °F -4.2 °F 5.0 °F 84% 29.32 in 1.2 mi West 9.2 mph - 0.00 in Snow Light Snow
2:13 PM 10.9 °F -4.1 °F 7.0 °F 84% 29.32 in 1.8 mi WSW 12.7 mph - 0.00 in Snow Light Snow
2:15 PM 10.9 °F -4.1 °F 7.0 °F 84% 29.32 in 3.0 mi West 12.7 mph - 0.00 in Snow Light Snow
2:53 PM 15.1 °F -0.6 °F 9.0 °F 77% 29.41 in 10.0 mi West 16.1 mph 24.2 mph 0.00 in   Overcast
3:42 PM 17.1 °F 1.0 °F 12.0 °F 81% 29.37 in 1.8 mi West 18.4 mph 28.8 mph 0.00 in Snow Light Snow
3:44 PM 17.1 °F 1.5 °F 12.0 °F 81% 29.37 in 1.2 mi West 17.3 mph 28.8 mph 0.00 in Snow Light Snow
3:53 PM 17.1 °F -1.4 °F 10.9 °F 77% 29.44 in 1.8 mi WSW 25.3 mph 33.4 mph 0.00 in Snow Light Snow
3:55 PM 17.1 °F 2.0 °F 10.9 °F 77% 29.37 in 2.5 mi WSW 16.1 mph 33.4 mph 0.00 in Snow Light Snow
4:02 PM 17.1 °F -0.3 °F 9.0 °F 71% 29.37 in 5.0 mi WSW 21.9 mph 35.7 mph 0.00 in   Overcast
4:20 PM 16.0 °F -2.5 °F 5.0 °F 62% 29.38 in 1.8 mi WSW 24.2 mph 50.6 mph 0.01 in Snow Light Snow
4:29 PM 16.0 °F -1.7 °F 3.9 °F 59% 29.39 in 3.0 mi WSW 21.9 mph 36.8 mph 0.01 in   Mostly Cloudy
4:32 PM 16.0 °F -1.7 °F 3.9 °F 59% 29.40 in 2.5 mi WSW 21.9 mph 35.7 mph 0.01 in   Mostly Cloudy
4:39 PM 15.1 °F -4.4 °F 3.9 °F 61% 29.40 in 1.5 mi WSW 26.5 mph 34.5 mph 0.01 in   Mostly Cloudy
4:42 PM 15.1 °F -2.9 °F 3.0 °F 59% 29.40 in 2.0 mi WSW 21.9 mph 35.7 mph 0.01 in   Scattered Clouds
4:53 PM 15.1 °F -2.9 °F 3.9 °F 61% 29.47 in 5.0 mi WSW 21.9 mph 36.8 mph 0.01 in   Partly Cloudy
5:53 PM 14.0 °F -3.9 °F 3.0 °F 62% 29.51 in 8.0 mi WSW 20.7 mph 32.2 mph 0.00 in   Clear
6:53 PM 12.9 °F -2.8 °F 3.0 °F 65% 29.54 in 10.0 mi WSW 15.0 mph 26.5 mph 0.00 in   Overcast
7:53 PM 12.9 °F -7.3 °F 3.9 °F 67% 29.57 in 7.0 mi WSW 26.5 mph 38.0 mph 0.00 in   Overcast
8:53 PM 10.0 °F -9.1 °F 1.0 °F 67% 29.61 in 8.0 mi West 20.7 mph 31.1 mph 0.00 in   Clear
9:50 PM 8.6 °F -9.5 °F -0.4 °F 67% 29.58 in 10.0 mi West 17.3 mph 28.8 mph N/A   Mostly Cloudy
9:53 PM 8.1 °F -10.7 °F -0.0 °F 70% 29.65 in 10.0 mi West 18.4 mph 25.3 mph N/A   Scattered Clouds
10:53 PM 5.0 °F -16.2 °F -2.9 °F 70% 29.69 in 9.0 mi West 21.9 mph 29.9 mph 0.00 in   Partly Cloudy
11:53 PM 3.0 °F -14.8 °F -5.1 °F 69% 29.74 in 10.0 mi West 13.8 mph 26.5 mph N/A   Scattered Clouds